Simultaneous Nadir Overpasses (SNOs) Predictions

Prediction of SNOs near US between NOAA-19 and NPP Satellite Orbit:

Table of predicted SNOs near US for the next 10.0 days since TLE Epoch: 12/8/2012
<
Index Date (NOAA-19) Time (NOAA-19) NOAA-19 Lat,Lon Date (NPP) Time (NPP) NPP Lat,Lon Distance(km) Time Diff (sec)
1 12/10/2012 06:24:59 38.10, -65.61 12/10/2012 06:24:28 38.61, -68.34 244.32 31
2 12/10/2012 08:04:41 46.33, -88.17 12/10/2012 08:03:37 46.77, -90.78 205.75 64
3 12/10/2012 09:47:21 44.31,-114.48 12/10/2012 09:45:42 44.75,-116.94 201.54 99
4 12/10/2012 17:53:46 50.00, -75.49 12/10/2012 17:49:25 49.71, -76.97 111.11 261
5 12/10/2012 19:35:50 49.95,-100.98 12/10/2012 19:30:55 49.72,-102.35 101.18 295
6 12/10/2012 21:16:53 46.41,-124.99 12/10/2012 21:11:24 46.21,-126.25 99.80 329
7 12/11/2012 08:01:22
